EXS56PS EGAA-GCRR

Flight info

Callsign EXS56PS
Flight time N/A
Altitude 40000
Route MAC DCT DEGOS DCT TUGSI DCT TUVEN/M083F390 DCT TULTA/N0476F390 DCT KOPIP DCT KORUL DCT ASPOR DCT TAKAV DCT VEDOD UN857 TERTO
Aircraft A332/H-SDE3GHIJ2J3J5M1RVWXYZ/LB2D1

Departure

Time 2026-04-30 12:54
Airport Belfast International Airport (EGAA)

Arrival

Time N/A
Airport César Manrique-Lanzarote Airport (GCRR)
Time Latitude Longitude Altitude Speed Heading
2026-04-30 12:27 54.65952 -6.21758 276 ft 0 kts 278°
2026-04-30 12:48 54.65950 -6.21727 276 ft 1 kts 278°
2026-04-30 12:49 54.65950 -6.21726 276 ft 0 kts 278°
2026-04-30 12:49 54.65948 -6.21698 276 ft 3 kts 276°
2026-04-30 12:49 54.65946 -6.21668 276 ft 2 kts 276°
2026-04-30 12:50 54.65944 -6.21639 276 ft 2 kts 276°
2026-04-30 12:50 54.65942 -6.21611 278 ft 2 kts 276°
2026-04-30 12:50 54.65940 -6.21583 282 ft 2 kts 276°
2026-04-30 12:50 54.65938 -6.21555 276 ft 3 kts 269°
2026-04-30 12:51 54.65936 -6.21550 276 ft 3 kts 249°
2026-04-30 12:51 54.65903 -6.21686 279 ft 17 kts 246°
2026-04-30 12:51 54.65849 -6.21888 276 ft 20 kts 244°
2026-04-30 12:51 54.65790 -6.22114 276 ft 22 kts 250°
2026-04-30 12:52 54.65760 -6.22379 276 ft 23 kts 264°
2026-04-30 12:52 54.65743 -6.22671 276 ft 25 kts 265°
2026-04-30 12:52 54.65686 -6.22963 276 ft 27 kts 235°
2026-04-30 12:52 54.65572 -6.23228 276 ft 28 kts 232°
2026-04-30 12:53 54.65418 -6.23395 276 ft 18 kts 195°
2026-04-30 12:53 54.65300 -6.23371 276 ft 17 kts 182°
2026-04-30 12:53 54.65281 -6.23361 276 ft 1 kts 143°
2026-04-30 12:53 54.65280 -6.23320 276 ft 5 kts 75°
2026-04-30 12:54 54.65356 -6.23039 276 ft 58 kts 64°
2026-04-30 12:54 54.65627 -6.22031 276 ft 125 kts 65°
2026-04-30 12:54 54.66090 -6.20424 559 ft 161 kts 70°
2026-04-30 12:54 54.66588 -6.18692 1516 ft 160 kts 70°
2026-04-30 12:55 54.67069 -6.16948 2448 ft 169 kts 72°
2026-04-30 12:55 54.67632 -6.14928 2869 ft 205 kts 72°
2026-04-30 12:55 54.68287 -6.12507 3252 ft 238 kts 71°
2026-04-30 12:55 54.68840 -6.09731 3877 ft 248 kts 86°
2026-04-30 12:56 54.68788 -6.06779 4720 ft 247 kts 108°
2026-04-30 12:56 54.67944 -6.04253 5653 ft 244 kts 137°
2026-04-30 12:56 54.66457 -6.02871 6647 ft 248 kts 167°
2026-04-30 12:56 54.64747 -6.03122 7694 ft 253 kts 197°
2026-04-30 12:57 54.63247 -6.04746 8689 ft 262 kts 214°
2026-04-30 12:57 54.61915 -6.06937 9677 ft 268 kts 221°
2026-04-30 12:57 54.60676 -6.09416 10545 ft 278 kts 225°
2026-04-30 12:57 54.59412 -6.12105 10964 ft 301 kts 225°
2026-04-30 12:58 54.58041 -6.15009 11312 ft 323 kts 225°
2026-04-30 12:58 54.56553 -6.18078 11706 ft 342 kts 224°
2026-04-30 12:58 54.54982 -6.21240 12364 ft 352 kts 224°
2026-04-30 12:58 54.53361 -6.24445 13169 ft 357 kts 223°
2026-04-30 12:59 54.50582 -6.29862 14517 ft 364 kts 223°
2026-04-30 12:59 54.47185 -6.36430 16096 ft 370 kts 223°
2026-04-30 12:59 54.43726 -6.43098 17636 ft 376 kts 222°
2026-04-30 12:59 54.40208 -6.49869 19021 ft 384 kts 222°
2026-04-30 13:00 54.36658 -6.56683 20247 ft 390 kts 222°
2026-04-30 13:00 54.33003 -6.63683 21442 ft 397 kts 222°
2026-04-30 13:00 54.29283 -6.70788 22579 ft 404 kts 221°
2026-04-30 13:00 54.25491 -6.78009 23690 ft 411 kts 221°
2026-04-30 13:01 54.21631 -6.85345 24579 ft 418 kts 222°
2026-04-30 13:01 54.17522 -6.92511 25433 ft 423 kts 217°
2026-04-30 13:01 54.13054 -6.99192 26279 ft 430 kts 216°
2026-04-30 13:01 54.08485 -7.05854 27157 ft 436 kts 216°
2026-04-30 13:02 54.03842 -7.12598 28046 ft 441 kts 216°
2026-04-30 13:02 53.98658 -7.18149 28869 ft 440 kts 200°
2026-04-30 13:02 53.92794 -7.21117 29657 ft 443 kts 190°
2026-04-30 13:02 53.86812 -7.23357 30435 ft 448 kts 189°
2026-04-30 13:03 53.80705 -7.25589 31394 ft 446 kts 189°
2026-04-30 13:03 53.74697 -7.27831 32628 ft 438 kts 189°
2026-04-30 13:03 53.68805 -7.30047 33837 ft 430 kts 189°
2026-04-30 13:03 53.63000 -7.32227 34727 ft 427 kts 189°
2026-04-30 13:04 53.57155 -7.34410 35273 ft 430 kts 189°
2026-04-30 13:04 53.51306 -7.36593 35878 ft 432 kts 189°
2026-04-30 13:04 53.45407 -7.38791 36459 ft 434 kts 189°
2026-04-30 13:04 53.39490 -7.40989 37002 ft 436 kts 189°
2026-04-30 13:05 53.33552 -7.43186 37568 ft 438 kts 190°
2026-04-30 13:05 53.27575 -7.45393 38125 ft 439 kts 190°
2026-04-30 13:05 53.21590 -7.47595 38647 ft 441 kts 190°
2026-04-30 13:06 53.09647 -7.51972 39440 ft 444 kts 190°
2026-04-30 13:06 53.03593 -7.54181 39821 ft 445 kts 190°
2026-04-30 13:06 52.97514 -7.56391 40101 ft 449 kts 191°
2026-04-30 13:07 52.85265 -7.60826 40106 ft 450 kts 191°
2026-04-30 13:07 52.73045 -7.65226 40101 ft 448 kts 191°
2026-04-30 13:08 52.60857 -7.69588 40101 ft 448 kts 191°
2026-04-30 13:08 52.48739 -7.73900 40103 ft 448 kts 191°
2026-04-30 13:09 52.36544 -7.78216 40095 ft 447 kts 191°
2026-04-30 13:09 52.24368 -7.82500 40091 ft 448 kts 191°
2026-04-30 13:10 52.12169 -7.86767 40093 ft 448 kts 191°
2026-04-30 13:10 51.99974 -7.91010 40078 ft 447 kts 191°
2026-04-30 13:11 51.87813 -7.95218 40075 ft 446 kts 191°
2026-04-30 13:11 51.75653 -7.99402 40065 ft 446 kts 191°
2026-04-30 13:12 51.63610 -8.03522 40063 ft 445 kts 191°
2026-04-30 13:12 51.51502 -8.07642 40049 ft 444 kts 191°
2026-04-30 13:13 51.33420 -8.13756 40037 ft 442 kts 191°
2026-04-30 13:14 51.15275 -8.19872 40034 ft 445 kts 191°
2026-04-30 13:14 50.99057 -8.24676 40030 ft 442 kts 180°
2026-04-30 13:15 50.89872 -8.24009 40032 ft 443 kts 175°
2026-04-30 13:16 50.83726 -8.23268 40023 ft 443 kts 175°
2026-04-30 13:16 50.77579 -8.22555 40023 ft 443 kts 176°
2026-04-30 13:17 50.68349 -8.21552 40020 ft 443 kts 176°
2026-04-30 13:18 50.59113 -8.20570 40020 ft 443 kts 176°
2026-04-30 13:18 50.49926 -8.19593 40015 ft 443 kts 176°
2026-04-30 13:19 50.43777 -8.18941 40014 ft 443 kts 176°
2026-04-30 13:19 50.37626 -8.18290 40013 ft 443 kts 176°
2026-04-30 13:20 50.31479 -8.17641 40013 ft 443 kts 176°
2026-04-30 13:20 50.25329 -8.16994 40012 ft 443 kts 176°
2026-04-30 13:21 50.19167 -8.16347 40011 ft 443 kts 176°
2026-04-30 13:22 50.09935 -8.15382 40013 ft 443 kts 176°
2026-04-30 13:22 50.00730 -8.14422 40012 ft 444 kts 176°
2026-04-30 13:23 49.92484 -8.13566 40012 ft 444 kts 176°
2026-04-30 13:24 49.80186 -8.12295 40011 ft 444 kts 176°
2026-04-30 13:25 49.67819 -8.11022 40006 ft 444 kts 176°
2026-04-30 13:26 49.52395 -8.09445 40013 ft 447 kts 176°
2026-04-30 13:28 49.36842 -8.07863 40014 ft 447 kts 176°
2026-04-30 13:28 49.27564 -8.06925 40015 ft 447 kts 176°
2026-04-30 13:29 49.15141 -8.05675 40017 ft 446 kts 176°
2026-04-30 13:31 48.99641 -8.04124 40019 ft 446 kts 177°
2026-04-30 13:32 48.84205 -8.02593 40021 ft 446 kts 177°
2026-04-30 13:33 48.71833 -8.01379 40026 ft 444 kts 177°
2026-04-30 13:34 48.62610 -8.00467 40023 ft 444 kts 177°
2026-04-30 13:35 48.50376 -7.97767 40026 ft 445 kts 170°
2026-04-30 13:36 48.38228 -7.93963 40030 ft 445 kts 169°
2026-04-30 13:36 48.29155 -7.91151 40034 ft 445 kts 170°
2026-04-30 13:37 48.20060 -7.88358 40034 ft 445 kts 170°
2026-04-30 13:38 48.10959 -7.85573 40036 ft 444 kts 170°
2026-04-30 13:39 47.98839 -7.81878 40038 ft 444 kts 170°
2026-04-30 13:40 47.89743 -7.79117 40037 ft 445 kts 170°
2026-04-30 13:40 47.83676 -7.77281 40044 ft 445 kts 170°
2026-04-30 13:41 47.77603 -7.75447 40041 ft 445 kts 170°
2026-04-30 13:41 47.71574 -7.73632 40039 ft 445 kts 171°
2026-04-30 13:42 47.65494 -7.71805 40043 ft 446 kts 171°
2026-04-30 13:42 47.56369 -7.69071 40045 ft 446 kts 171°
2026-04-30 13:43 47.50288 -7.67254 40057 ft 446 kts 171°
2026-04-30 13:43 47.44190 -7.65437 40056 ft 447 kts 171°
2026-04-30 13:44 47.38094 -7.63624 40054 ft 447 kts 171°
2026-04-30 13:44 47.32037 -7.61828 40051 ft 447 kts 171°
2026-04-30 13:45 47.22875 -7.59118 40058 ft 447 kts 171°
2026-04-30 13:46 47.16769 -7.57318 40059 ft 447 kts 171°
2026-04-30 13:46 47.10651 -7.55518 40057 ft 448 kts 171°
2026-04-30 13:47 47.04538 -7.53724 40063 ft 448 kts 171°
2026-04-30 13:47 46.98409 -7.51930 40064 ft 449 kts 171°
2026-04-30 13:48 46.92320 -7.50152 40051 ft 448 kts 171°
2026-04-30 13:48 46.86179 -7.48373 40064 ft 450 kts 171°
2026-04-30 13:49 46.80029 -7.46599 40067 ft 450 kts 171°
2026-04-30 13:49 46.73886 -7.44831 40066 ft 450 kts 171°
2026-04-30 13:50 46.67780 -7.43077 40065 ft 450 kts 171°
2026-04-30 13:50 46.58544 -7.40431 40068 ft 450 kts 171°
2026-04-30 13:51 46.52392 -7.38673 40073 ft 451 kts 171°
2026-04-30 13:51 46.46236 -7.36919 40070 ft 451 kts 171°
2026-04-30 13:52 46.40084 -7.35170 40077 ft 451 kts 172°
2026-04-30 13:52 46.33932 -7.33424 40077 ft 450 kts 172°
2026-04-30 13:53 46.27797 -7.31688 40075 ft 451 kts 172°
2026-04-30 13:53 46.21625 -7.29945 40075 ft 452 kts 172°
2026-04-30 13:54 46.15449 -7.28205 40075 ft 452 kts 172°
2026-04-30 13:54 46.09260 -7.26465 40077 ft 452 kts 172°
2026-04-30 13:55 46.03070 -7.24729 40081 ft 453 kts 172°
2026-04-30 13:55 45.96923 -7.23009 40083 ft 453 kts 172°
2026-04-30 13:56 45.90730 -7.21280 40082 ft 453 kts 172°
2026-04-30 13:56 45.84527 -7.19552 40083 ft 454 kts 172°
2026-04-30 13:57 45.78329 -7.17830 40086 ft 454 kts 172°
2026-04-30 13:57 45.72165 -7.16120 40083 ft 454 kts 172°
2026-04-30 13:58 45.62864 -7.13548 40085 ft 454 kts 172°
2026-04-30 13:59 45.56663 -7.11839 40086 ft 454 kts 172°
2026-04-30 13:59 45.50462 -7.10133 40085 ft 454 kts 172°
2026-04-30 14:00 45.44243 -7.08426 40090 ft 455 kts 172°
2026-04-30 14:00 45.34924 -7.05875 40085 ft 454 kts 172°
2026-04-30 14:01 45.28710 -7.04179 40089 ft 455 kts 172°
2026-04-30 14:01 45.22519 -7.02493 40089 ft 456 kts 172°
2026-04-30 14:02 45.16287 -7.00799 40081 ft 456 kts 172°
2026-04-30 14:02 45.10053 -6.99108 40085 ft 456 kts 172°
2026-04-30 14:03 45.03811 -6.97419 40089 ft 456 kts 172°
2026-04-30 14:03 44.97566 -6.95734 40081 ft 456 kts 172°
2026-04-30 14:04 44.91370 -6.94065 40091 ft 457 kts 172°
2026-04-30 14:04 44.85095 -6.92813 40090 ft 453 kts 181°
2026-04-30 14:05 44.78895 -6.93839 40092 ft 447 kts 195°
2026-04-30 14:05 44.72889 -6.96102 40086 ft 447 kts 198°
2026-04-30 14:06 44.63939 -6.99821 40087 ft 447 kts 198°
2026-04-30 14:07 44.54969 -7.03469 40088 ft 447 kts 198°
2026-04-30 14:08 44.45996 -7.07060 40090 ft 447 kts 198°
2026-04-30 14:08 44.37055 -7.10626 40084 ft 447 kts 198°
2026-04-30 14:09 44.31071 -7.13007 40091 ft 447 kts 198°
2026-04-30 14:10 44.22104 -7.16568 40092 ft 446 kts 198°
2026-04-30 14:10 44.16125 -7.18935 40089 ft 446 kts 198°
2026-04-30 14:11 44.10155 -7.21294 40090 ft 446 kts 198°
2026-04-30 14:11 44.04223 -7.23633 40092 ft 445 kts 198°
2026-04-30 14:12 43.98263 -7.25978 40088 ft 445 kts 198°
2026-04-30 14:12 43.92310 -7.28315 40091 ft 444 kts 198°
2026-04-30 14:13 43.87361 -7.30255 40088 ft 444 kts 198°
2026-04-30 14:13 43.81417 -7.32580 40089 ft 444 kts 198°
2026-04-30 14:14 43.75472 -7.34901 40089 ft 444 kts 198°
2026-04-30 14:14 43.69523 -7.37218 40088 ft 443 kts 198°
2026-04-30 14:15 43.63589 -7.39525 40089 ft 443 kts 198°
2026-04-30 14:15 43.57652 -7.41828 40079 ft 443 kts 198°
2026-04-30 14:16 43.51716 -7.44127 40083 ft 443 kts 198°
2026-04-30 14:16 43.45787 -7.46418 40078 ft 443 kts 198°
2026-04-30 14:17 43.39850 -7.48707 40073 ft 443 kts 198°
2026-04-30 14:17 43.33920 -7.50989 40067 ft 442 kts 197°
2026-04-30 14:18 43.28028 -7.53252 40068 ft 442 kts 197°
2026-04-30 14:18 43.19141 -7.56656 40062 ft 442 kts 197°
2026-04-30 14:19 43.10250 -7.60051 40070 ft 442 kts 197°
2026-04-30 14:20 43.04332 -7.62305 40067 ft 440 kts 197°
2026-04-30 14:20 42.95479 -7.65670 40062 ft 440 kts 197°
2026-04-30 14:21 42.89580 -7.67906 40055 ft 440 kts 197°
2026-04-30 14:22 42.80770 -7.71237 40060 ft 440 kts 197°
2026-04-30 14:22 42.71919 -7.74574 40056 ft 439 kts 197°
2026-04-30 14:23 42.60119 -7.79007 40057 ft 439 kts 197°
2026-04-30 14:24 42.51315 -7.82303 40056 ft 439 kts 197°
2026-04-30 14:25 42.39537 -7.86698 40055 ft 439 kts 197°
2026-04-30 14:26 42.30696 -7.89985 40067 ft 439 kts 197°
2026-04-30 14:27 42.21850 -7.93264 40065 ft 439 kts 197°
2026-04-30 14:27 42.15952 -7.95446 40066 ft 439 kts 197°
2026-04-30 14:28 42.07139 -7.98698 40070 ft 439 kts 197°
2026-04-30 14:28 42.01251 -8.00866 40068 ft 439 kts 197°
2026-04-30 14:29 41.89468 -8.05190 40085 ft 438 kts 197°
2026-04-30 14:31 41.74649 -8.09779 40084 ft 439 kts 192°
2026-04-30 14:31 41.65627 -8.11924 40091 ft 439 kts 192°
2026-04-30 14:32 41.56617 -8.14063 40091 ft 438 kts 192°
2026-04-30 14:33 41.50605 -8.15495 40089 ft 438 kts 192°
2026-04-30 14:33 41.41605 -8.17634 40088 ft 437 kts 192°
2026-04-30 14:34 41.35615 -8.19056 40089 ft 437 kts 192°
2026-04-30 14:34 41.29620 -8.20475 40093 ft 437 kts 192°
2026-04-30 14:35 41.20672 -8.22589 40093 ft 437 kts 191°
2026-04-30 14:36 41.14687 -8.23999 40092 ft 437 kts 191°
2026-04-30 14:36 41.08706 -8.25406 40094 ft 437 kts 191°
2026-04-30 14:37 41.02712 -8.26813 40092 ft 437 kts 191°
2026-04-30 14:37 40.96726 -8.28216 40096 ft 437 kts 191°
2026-04-30 14:38 40.90742 -8.29616 40096 ft 437 kts 191°
2026-04-30 14:38 40.84760 -8.31012 40095 ft 436 kts 191°
2026-04-30 14:39 40.78777 -8.32407 40092 ft 437 kts 191°
2026-04-30 14:39 40.72818 -8.33793 40093 ft 437 kts 191°
2026-04-30 14:40 40.63834 -8.35878 40093 ft 437 kts 191°
2026-04-30 14:40 40.57837 -8.37267 40092 ft 437 kts 191°
2026-04-30 14:41 40.51831 -8.38655 40097 ft 437 kts 191°
2026-04-30 14:41 40.45875 -8.40029 40097 ft 437 kts 191°
2026-04-30 14:42 40.39883 -8.41409 40091 ft 437 kts 191°
2026-04-30 14:42 40.33881 -8.42789 40092 ft 437 kts 191°
2026-04-30 14:43 40.27884 -8.44165 40092 ft 437 kts 191°
2026-04-30 14:43 40.21888 -8.45538 40092 ft 437 kts 191°
2026-04-30 14:44 40.15924 -8.46902 40083 ft 437 kts 191°
2026-04-30 14:44 40.09928 -8.48271 40091 ft 438 kts 191°
2026-04-30 14:45 40.03926 -8.49638 40097 ft 438 kts 191°
2026-04-30 14:45 39.97926 -8.51003 40098 ft 438 kts 191°
2026-04-30 14:46 39.91925 -8.52365 40101 ft 438 kts 191°
2026-04-30 14:46 39.86893 -8.53506 40101 ft 438 kts 191°
2026-04-30 14:47 39.79906 -8.55086 40105 ft 439 kts 191°
2026-04-30 14:47 39.73892 -8.56445 40105 ft 439 kts 191°
2026-04-30 14:48 39.67879 -8.57800 40095 ft 439 kts 191°
2026-04-30 14:48 39.61856 -8.59155 40091 ft 439 kts 191°
2026-04-30 14:49 39.55825 -8.60509 40090 ft 439 kts 191°
2026-04-30 14:49 39.49798 -8.61861 40083 ft 439 kts 191°
2026-04-30 14:50 39.40784 -8.63878 40090 ft 440 kts 191°
2026-04-30 14:51 39.31719 -8.65900 40091 ft 440 kts 191°
2026-04-30 14:52 39.22653 -8.67917 40083 ft 440 kts 191°
2026-04-30 14:52 39.13617 -8.69923 40087 ft 441 kts 191°
2026-04-30 14:53 39.04543 -8.71933 40109 ft 441 kts 191°
2026-04-30 14:54 38.92459 -8.74600 40098 ft 440 kts 191°
2026-04-30 14:55 38.83423 -8.76589 40092 ft 440 kts 191°
2026-04-30 14:56 38.71326 -8.79243 40096 ft 441 kts 191°
2026-04-30 14:57 38.62277 -8.81222 40087 ft 441 kts 191°
2026-04-30 14:58 38.50165 -8.83863 40099 ft 442 kts 191°
2026-04-30 14:58 38.41062 -8.85843 40107 ft 442 kts 191°
2026-04-30 15:00 38.25934 -8.89121 40105 ft 442 kts 191°
2026-04-30 15:01 38.14809 -8.91522 40107 ft 442 kts 191°
2026-04-30 15:01 38.05692 -8.93486 40105 ft 443 kts 191°
2026-04-30 15:02 37.99616 -8.94791 40101 ft 443 kts 191°
2026-04-30 15:03 37.84417 -8.98047 40095 ft 443 kts 191°
2026-04-30 15:04 37.69242 -9.01284 40105 ft 443 kts 191°
2026-04-30 15:06 37.54052 -9.04511 40103 ft 444 kts 191°
2026-04-30 15:07 37.41840 -9.07096 40103 ft 444 kts 191°
2026-04-30 15:08 37.29631 -9.09671 40111 ft 445 kts 192°
2026-04-30 15:09 37.14353 -9.12882 40108 ft 446 kts 192°
2026-04-30 15:10 37.02094 -9.15449 40105 ft 448 kts 192°
2026-04-30 15:11 36.83649 -9.19295 40108 ft 448 kts 192°
2026-04-30 15:13 36.68273 -9.22487 40109 ft 449 kts 192°
2026-04-30 15:14 36.46642 -9.26956 40107 ft 451 kts 192°
2026-04-30 15:17 36.18780 -9.32675 40108 ft 452 kts 192°
2026-04-30 15:19 35.94147 -9.38749 40109 ft 448 kts 206°